Location: Laterina
(43.5167°N, 11.7167°E)
Time: 08:15:39
(UTC+00:00)

Cosmos 2026 Rocket - Pass Details

Date: 21 January 2021
Orbit: 940 x 1000 km, 82.9° (Epoch: 08 March)

Event Time Altitude Azimuth Distance (km) Brightness Sun altitude
Rises 18:09:18 0° 180° (S) 3,597 7.1 -21.4°
Reaches altitude 10° 18:11:45 10° 179° (S) 2,661 6.3 -21.8°
Maximum altitude 18:17:49 76° 95° (E) 989 3.8 -22.9°
Drops below altitude 10° 18:24:01 10° 11° (N) 2,717 6.2 -24.0°
Sets 18:26:33 0° 10° (N) 3,677 6.9 -24.5°
